Total_Precipitation_Accumulation
0.96 0.72 1.21 1.19 1.00 0.88 0.80 0.77 0.81 0.90 0.85 0.75 0.73 0.67 0.57 0.49 0.45 0.42 0.38 0.35 0.38 0.38 0.38 0.37 0.40 0.46 0.47 0.45 0.54 0.61 0.64 0.52 0.49 0.49 0.41 0.40 0.47 0.43 0.46 0.60 0.99 1.33 0.78
0.54 0.56 1.14 1.14 0.94 0.80 0.73 0.74 0.83 0.88 0.87 0.78 0.72 0.67 0.56 0.45 0.43 0.40 0.36 0.33 0.35 0.34 0.35 0.35 0.36 0.44 0.49 0.49 0.59 0.67 0.63 0.57 0.59 0.61 0.57 0.59 0.55 0.47 0.45 0.54 0.90 1.20 0.82
0.43 0.49 0.81 1.07 0.96 0.89 0.83 0.76 0.75 0.79 0.81 0.71 0.65 0.63 0.58 0.47 0.41 0.38 0.35 0.33 0.31 0.36 0.34 0.35 0.38 0.44 0.51 0.58 0.60 0.61 0.57 0.59 0.64 0.75 1.03 1.47 1.03 0.64 0.57 0.53 0.68 0.75 0.74
0.46 0.50 0.63 1.01 0.99 0.95 0.87 0.82 0.81 0.78 0.75 0.68 0.61 0.56 0.52 0.46 0.42 0.42 0.37 0.36 0.33 0.33 0.36 0.37 0.37 0.43 0.48 0.54 0.57 0.55 0.50 0.56 0.65 0.76 1.11 1.53 1.41 0.99 0.79 0.74 0.80 0.67 0.72
0.45 0.50 0.71 1.05 0.99 0.98 0.94 0.95 0.98 0.88 0.82 0.72 0.61 0.59 0.55 0.53 0.48 0.44 0.41 0.39 0.37 0.37 0.37 0.38 0.38 0.44 0.50 0.50 0.48 0.47 0.49 0.61 0.75 0.67 0.94 1.28 1.65 1.36 0.95 0.93 0.99 0.85 0.78
0.47 0.48 0.68 0.96 0.92 0.93 0.95 0.98 0.98 0.84 0.76 0.67 0.59 0.59 0.60 0.57 0.51 0.48 0.48 0.47 0.44 0.45 0.43 0.44 0.43 0.48 0.51 0.50 0.48 0.49 0.61 0.69 0.66 0.78 0.96 1.25 1.66 1.43 1.09 1.04 1.00 1.10 0.95
0.55 0.47 0.56 0.82 0.87 0.91 0.89 0.81 0.86 0.83 0.78 0.68 0.61 0.59 0.57 0.54 0.54 0.53 0.57 0.54 0.54 0.54 0.51 0.52 0.51 0.49 0.50 0.55 0.52 0.55 0.67 0.66 0.71 0.90 0.92 1.18 1.30 1.28 1.10 1.03 1.08 1.30 1.19
0.64 0.54 0.52 0.72 0.82 0.82 0.82 0.82 0.90 0.89 0.81 0.68 0.59 0.59 0.58 0.58 0.56 0.55 0.55 0.54 0.59 0.65 0.64 0.58 0.58 0.51 0.51 0.57 0.56 0.59 0.71 0.72 0.70 0.79 0.74 0.98 1.30 1.33 1.04 1.01 1.08 1.26 1.33
0.90 0.76 0.63 0.65 0.72 0.80 0.85 0.88 0.98 1.01 0.95 0.77 0.62 0.61 0.61 0.56 0.51 0.50 0.55 0.57 0.59 0.62 0.65 0.63 0.63 0.58 0.55 0.57 0.58 0.63 0.75 0.76 0.75 0.74 0.63 0.96 1.32 1.24 0.99 0.91 0.95 1.12 1.25
0.95 0.90 0.81 0.75 0.76 0.84 0.90 1.03 1.13 1.22 1.33 1.08 0.79 0.70 0.66 0.55 0.50 0.52 0.54 0.58 0.62 0.70 0.69 0.68 0.69 0.65 0.66 0.62 0.60 0.60 0.66 0.62 0.64 0.63 0.73 0.89 1.21 1.22 0.99 0.87 0.85 0.87 0.96
0.69 0.73 0.77 0.80 0.86 0.87 0.82 0.89 1.12 1.30 1.47 1.21 0.84 0.85 0.77 0.55 0.56 0.60 0.60 0.73 0.79 0.83 0.84 0.84 0.85 0.84 0.82 0.73 0.70 0.64 0.52 0.39 0.52 0.64 0.77 0.91 1.20 1.20 0.95 0.81 0.66 0.67 0.72
0.55 0.52 0.54 0.57 0.66 0.73 0.72 0.93 1.18 1.22 1.35 1.09 0.92 0.96 0.92 0.97 0.91 0.70 0.69 0.88 1.00 1.07 1.00 0.98 1.02 0.95 0.82 0.64 0.65 0.57 0.37 0.36 0.50 0.58 0.65 0.93 1.23 1.18 0.94 0.75 0.60 0.60 0.61
0.43 0.40 0.39 0.41 0.44 0.53 0.74 0.98 1.20 1.25 1.29 1.33 1.37 1.23 1.20 1.16 0.96 0.79 0.76 0.80 0.87 0.96 0.91 1.00 1.01 0.85 0.75 0.63 0.59 0.46 0.34 0.40 0.56 0.57 0.69 0.93 1.17 1.14 0.98 0.83 0.66 0.61 0.60
0.46 0.44 0.38 0.30 0.31 0.39 0.53 0.75 1.03 1.10 1.16 1.24 1.24 1.04 1.13 1.14 0.95 0.89 0.97 1.00 0.97 0.95 1.07 1.12 1.08 1.02 0.84 0.66 0.62 0.58 0.51 0.44 0.52 0.60 0.76 0.76 1.06 1.20 1.06 0.93 0.78 0.71 0.65
0.54 0.61 0.59 0.43 0.37 0.39 0.45 0.50 0.64 0.74 0.85 1.13 1.21 0.95 0.93 0.95 0.99 1.02 0.93 1.07 1.13 1.13 1.13 1.12 1.02 0.97 0.94 0.82 0.80 0.79 0.72 0.57 0.57 0.59 0.77 0.69 0.82 1.12 1.20 1.08 0.97 0.85 0.75
0.38 0.50 0.57 0.55 0.54 0.52 0.45 0.40 0.40 0.46 0.59 0.74 0.76 0.72 0.75 0.78 0.88 1.05 0.99 0.97 1.05 1.23 1.28 1.22 1.11 1.12 1.09 0.91 0.88 0.94 0.85 0.76 0.72 0.73 0.84 0.72 0.56 0.65 0.94 1.10 1.10 1.02 0.86
0.28 0.34 0.43 0.50 0.56 0.58 0.60 0.58 0.48 0.47 0.54 0.56 0.56 0.62 0.69 0.69 0.82 0.99 0.95 0.86 0.84 0.99 1.17 1.30 1.32 1.26 1.12 1.01 0.95 0.96 0.86 0.82 0.81 0.92 0.91 0.85 0.67 0.49 0.63 0.86 1.02 1.06 1.01
0.27 0.26 0.32 0.36 0.43 0.53 0.62 0.69 0.66 0.62 0.58 0.52 0.49 0.47 0.50 0.52 0.61 0.80 0.88 0.79 0.79 0.95 1.16 1.33 1.42 1.45 1.31 1.25 1.22 1.11 0.96 0.90 0.86 0.94 0.96 0.97 0.95 0.76 0.65 0.60 0.71 0.86 0.98
0.26 0.24 0.25 0.29 0.33 0.40 0.51 0.58 0.58 0.57 0.54 0.52 0.52 0.41 0.39 0.41 0.53 0.73 0.91 0.96 0.96 1.06 1.17 1.22 1.41 1.47 1.51 1.41 1.28 1.16 1.05 1.01 0.93 0.87 0.98 1.00 1.02 0.97 0.85 0.58 0.49 0.55 0.72
0.25 0.25 0.24 0.26 0.27 0.31 0.36 0.43 0.48 0.46 0.44 0.50 0.49 0.47 0.51 0.58 0.65 0.84 1.06 1.16 1.27 1.29 1.33 1.48 1.75 1.74 1.60 1.54 1.44 1.24 1.06 1.04 1.02 0.99 0.97 1.02 1.10 1.02 0.90 0.76 0.62 0.42 0.46
0.19 0.18 0.19 0.24 0.27 0.25 0.24 0.29 0.34 0.35 0.44 0.51 0.59 0.64 0.69 0.72 0.80 1.01 1.22 1.45 1.58 1.46 1.46 1.65 1.88 2.03 1.87 1.69 1.69 1.58 1.39 1.18 1.10 1.08 1.03 1.09 1.17 1.15 1.08 1.04 0.91 0.74 0.56
0.06 0.09 0.13 0.15 0.18 0.18 0.18 0.23 0.32 0.39 0.45 0.58 0.74 0.85 0.87 0.85 0.90 0.96 1.16 1.36 1.44 1.47 1.50 1.60 1.78 2.09 2.00 1.80 1.88 2.18 1.96 1.68 1.24 1.01 1.11 1.16 1.25 1.23 1.13 1.01 1.00 0.91 0.81
0.04 0.04 0.07 0.12 0.16 0.16 0.23 0.41 0.68 0.92 1.01 1.02 1.04 1.19 1.28 1.24 1.19 1.17 1.20 1.34 1.42 1.54 1.56 1.59 1.65 1.85 1.97 1.90 1.92 2.35 2.21 1.97 1.80 1.34 1.08 1.14 1.27 1.34 1.31 1.23 1.12 1.06 0.96
0.05 0.05 0.06 0.11 0.16 0.20 0.36 0.68 1.07 1.40 1.48 1.49 1.61 1.66 1.71 1.63 1.50 1.48 1.49 1.57 1.52 1.50 1.48 1.49 1.50 1.65 1.94 1.99 1.91 1.84 1.81 1.82 2.08 1.79 1.30 1.16 1.21 1.22 1.30 1.25 1.24 1.22 1.21
0.12 0.13 0.15 0.21 0.34 0.51 0.66 0.83 1.13 1.32 1.44 1.58 1.74 1.88 1.99 2.11 2.08 2.00 1.93 1.79 1.61 1.52 1.54 1.57 1.57 1.63 1.72 1.82 1.81 1.75 1.75 1.68 1.54 1.66 1.62 1.39 1.22 1.12 1.19 1.27 1.29 1.29 1.35
0.26 0.28 0.32 0.41 0.51 0.58 0.70 0.84 0.98 1.07 1.23 1.43 1.58 1.75 1.88 2.01 2.04 1.98 1.85 1.63 1.46 1.40 1.46 1.58 1.60 1.63 1.62 1.67 1.65 1.58 1.58 1.56 1.46 1.55 1.51 1.52 1.52 1.17 1.05 1.09 1.18 1.21 1.20